User: anonymous   Login
Location: Unspecified
(0.0000°N, 0.0000°E)
Time: 03:49:39
(UTC+00:00)
Language:

UNK - Orbit

View from above orbital plane
View from above orbital plane
View from above satellite
View from above satellite

Ground track
Ground track

The orbit data is extracted from the following two-line orbital elements,

1 28479U 04046A   18292.80066043  .00000100  00000-0  29941-4 0  9993
2 28479  98.1888 310.3660 0011170  45.1987 315.0120 14.60855595741009
Epoch (UTC): 19 October 2018 19:12:57
Eccentricity: 0.0011170
inclination: 98.1888°
perigee height: 682 km
apogee height: 698 km
right ascension of ascending node: 310.3660°
argument of perigee: 45.1987°
revolutions per day: 14.60855595
mean anomaly at epoch: 315.0120°
orbit number at epoch: 74100

The dashed part of the orbit path shows where the satellite is in the earth's shadow,  

DLR